Weather reports worldwide

Advertisment
Llanes, Spain (8016): temperature & dewpoint: 10.01.2018 08:00:00 - 16.01.2018 08:00:00 (CET)Llanes, Spain (8016): wind speed & gusts: 10.01.2018 08:00:00 - 16.01.2018 08:00:00 (CET)Llanes, Spain (8016): wind direction: 10.01.2018 08:00:00 - 16.01.2018 08:00:00 (CET)Llanes, Spain (8016): reduced air pressure: 10.01.2018 08:00:00 - 16.01.2018 08:00:00 (CET)Llanes, Spain (8016): visibility: 10.01.2018 08:00:00 - 16.01.2018 08:00:00 (CET)Llanes, Spain (8016): sunshine duration: 10.01.2018 08:00:00 - 16.01.2018 08:00:00 (CET)Llanes, Spain (8016): precipitation: 10.01.2018 08:00:00 - 16.01.2018 08:00:00 (CET)
Date & Time tt [°C] td [°C] ff [km/h] ff [kn] fx [km/h] fx [kn] dd ppp [hPa] vv [km] sd [min] rr [mm]
16.01.2018 08:00:00 13,3 10,0 22 12 48 26 WNW 1022,1 11 0 0,0
16.01.2018 07:00:00 14,5 8,9 21 11 44 24 WNW 1021,9 19 0 -
16.01.2018 06:00:00 14,4 9,4 22 12 50 27 WNW 1021,4 18 0 0,0
16.01.2018 05:00:00 14,7 9,6 23 13 44 24 WNW 1021,1 20 0 0,0
16.01.2018 04:00:00 15,2 9,3 26 14 43 23 NW 1020,5 20 0 0,0
16.01.2018 03:00:00 15,9 9,0 25 14 48 26 WNW 1020,2 20 0 0,0
16.01.2018 02:00:00 16,3 8,3 21 11 42 23 WNW 1020,5 20 0 0,0
16.01.2018 01:00:00 16,1 8,5 21 12 43 23 WNW 1021,1 20 0 -
16.01.2018 00:00:00 16,6 8,0 18 10 35 19 WNW 1020,5 20 0 0,0
15.01.2018 23:00:00 17,0 7,6 22 12 49 26 WNW 1020,2 20 0 0,0
15.01.2018 22:00:00 16,3 8,3 17 9 37 20 WNW 1020,5 20 0 0,0
15.01.2018 21:00:00 15,7 7,7 16 9 29 16 WNW 1020,4 20 0 0,0
15.01.2018 20:00:00 15,4 7,4 10 6 18 10 W 1019,8 19 0 0,0
15.01.2018 19:00:00 14,7 6,2 7 4 17 9 WNW 1019,8 20 0 -
15.01.2018 18:00:00 13,1 5,9 8 4 19 11 WNW 1019,7 20 0 0,0
15.01.2018 17:00:00 12,7 4,6 3 2 13 7 NNW 1020,1 20 0 0,0
15.01.2018 16:00:00 12,6 5,8 8 4 10 6 ENE 1020,1 20 0 0,0
15.01.2018 15:00:00 12,8 5,0 5 3 8 5 ESE 1020,0 20 0 0,0
15.01.2018 14:00:00 12,9 5,6 4 2 6 3 ENE 1021,4 20 4 0,0
15.01.2018 13:00:00 13,0 5,5 3 2 12 7 ENE 1022,0 20 39 -
15.01.2018 12:00:00 13,0 3,6 4 2 16 8 SE 1023,1 20 24 0,0
15.01.2018 11:00:00 10,5 4,8 3 2 21 11 S 1023,5 14 47 0,0
15.01.2018 10:00:00 6,6 1,1 7 4 23 13 SW 1024,1 20 3 0,0
15.01.2018 09:00:00 7,7 1,3 6 3 24 13 WNW 1024,2 20 0 0,0
15.01.2018 08:00:00 7,7 1,9 4 2 16 9 S 1023,6 17 0 0,0
15.01.2018 07:00:00 7,7 2,1 2 1 20 11 SW 1023,5 18 0 -
15.01.2018 06:00:00 7,8 2,1 2 1 22 12 W 1023,2 20 0 0,0
15.01.2018 05:00:00 7,8 1,5 10 5 24 13 WSW 1023,4 20 0 0,0
15.01.2018 04:00:00 7,7 2,5 6 4 25 13 W 1023,6 20 0 0,0
15.01.2018 03:00:00 9,0 3,0 7 4 27 15 W 1023,7 20 0 0,0
15.01.2018 02:00:00 9,5 3,6 12 6 30 16 W 1023,9 20 0 0,0
15.01.2018 01:00:00 9,2 3,8 11 6 30 16 W 1024,0 20 0 -
15.01.2018 00:00:00 9,4 4,6 10 5 29 15 W 1024,2 20 0 0,4
14.01.2018 23:00:00 9,7 4,6 8 4 30 16 W 1023,9 20 0 0,2
14.01.2018 22:00:00 10,0 4,3 9 5 36 19 W 1023,1 20 0 0,0
14.01.2018 21:00:00 10,2 4,3 12 7 34 18 W 1022,6 20 0 0,0
14.01.2018 20:00:00 9,9 4,8 13 7 31 17 W 1022,2 20 0 0,0
14.01.2018 19:00:00 10,1 4,6 14 7 31 17 W 1021,7 20 0 -
14.01.2018 18:00:00 10,3 4,8 11 6 36 19 W 1020,8 20 0 0,0
14.01.2018 17:00:00 10,9 5,0 14 8 36 19 WNW 1020,2 20 0 0,0
14.01.2018 16:00:00 11,2 4,1 18 10 41 22 WNW 1019,4 20 0 0,0
14.01.2018 15:00:00 11,5 4,5 21 11 49 27 NW 1019,1 20 37 0,0
14.01.2018 14:00:00 12,4 3,4 19 11 41 22 W 1019,0 20 60 0,0
14.01.2018 13:00:00 11,7 3,2 19 11 39 21 W 1019,1 20 59 -
14.01.2018 12:00:00 11,7 3,4 18 10 49 26 W 1019,5 20 28 0,0
14.01.2018 11:00:00 10,5 3,0 14 8 38 20 W 1019,1 20 34 0,0
14.01.2018 10:00:00 9,7 2,9 12 6 36 20 W 1018,7 20 35 0,0
14.01.2018 09:00:00 8,6 1,7 11 6 35 19 W 1018,0 20 0 0,0
14.01.2018 08:00:00 8,6 1,9 14 8 33 18 W 1017,3 20 0 0,2
14.01.2018 07:00:00 8,7 2,1 13 7 31 17 W 1016,9 20 0 -
14.01.2018 06:00:00 8,9 2,3 14 8 31 17 W 1016,8 20 0 0,0
14.01.2018 05:00:00 9,0 2,3 13 7 32 17 W 1016,7 20 0 0,0
14.01.2018 04:00:00 9,3 2,9 16 9 33 18 W 1016,7 20 0 0,0
14.01.2018 03:00:00 8,7 3,4 9 5 32 17 W 1016,4 20 0 0,0
14.01.2018 02:00:00 8,3 3,4 12 7 28 15 W 1016,3 20 0 0,0
14.01.2018 01:00:00 8,9 3,9 7 4 29 16 W 1016,4 20 0 -
14.01.2018 00:00:00 9,1 4,1 9 5 30 16 W 1016,5 20 0 0,0
13.01.2018 23:00:00 9,5 4,5 11 6 33 18 W 1016,2 20 0 0,0
13.01.2018 22:00:00 8,9 5,3 8 4 34 19 W 1015,9 20 0 0,0
13.01.2018 21:00:00 9,0 6,1 11 6 36 20 W 1015,8 20 0 0,8
13.01.2018 20:00:00 9,5 6,2 16 9 40 21 WNW 1015,4 5 0 0,2
13.01.2018 19:00:00 9,6 5,9 15 8 33 18 W 1014,8 20 0 -
13.01.2018 18:00:00 9,7 5,6 11 6 31 17 W 1014,2 20 0 0,0
13.01.2018 17:00:00 9,2 6,1 10 5 29 16 WSW 1013,8 20 0 0,4
13.01.2018 16:00:00 8,7 6,1 6 3 22 12 W 1013,7 14 0 0,8
13.01.2018 15:00:00 8,9 5,9 4 2 22 12 S 1013,6 12 0 1,0
13.01.2018 14:00:00 9,2 5,6 4 2 19 10 WSW 1014,1 15 0 0,4
13.01.2018 13:00:00 9,0 5,1 3 2 17 9 ESE 1014,6 17 0 -
13.01.2018 12:00:00 8,4 4,8 11 6 22 12 WSW 1015,1 20 0 0,4
13.01.2018 11:00:00 8,0 3,8 8 5 34 18 WSW 1014,8 20 0 0,8
13.01.2018 10:00:00 8,5 2,9 5 3 23 12 WSW 1013,9 20 0 0,0
13.01.2018 09:00:00 9,3 1,5 5 3 23 12 SW 1013,5 20 0 0,0
13.01.2018 08:00:00 9,0 1,5 8 4 28 15 WSW 1013,6 20 0 0,0
13.01.2018 07:00:00 8,7 2,3 13 7 29 16 WSW 1013,8 20 0 -
13.01.2018 06:00:00 7,8 1,3 10 5 28 15 W 1013,8 20 0 0,0
13.01.2018 05:00:00 7,0 1,1 13 7 26 14 WSW 1013,6 20 0 0,0
13.01.2018 04:00:00 7,0 1,3 6 3 26 14 WSW 1013,8 20 0 0,0
13.01.2018 03:00:00 6,9 1,7 8 5 25 14 SW 1014,1 20 0 0,0
13.01.2018 02:00:00 6,6 2,3 11 6 26 14 WSW 1015,1 20 0 0,0
13.01.2018 01:00:00 7,2 3,2 12 7 25 14 WSW 1016,2 20 0 -
13.01.2018 00:00:00 7,6 3,6 5 3 26 14 W 1016,9 20 0 0,0
12.01.2018 23:00:00 8,1 4,5 6 4 26 14 WSW 1017,8 20 0 0,0
12.01.2018 22:00:00 8,0 4,8 6 3 21 11 WSW 1018,6 20 0 0,0
12.01.2018 21:00:00 8,5 5,5 8 4 23 13 SW 1019,4 20 0 0,0
12.01.2018 20:00:00 9,6 5,9 1 1 21 11 SSW 1020,1 16 0 0,0
12.01.2018 19:00:00 9,9 6,2 9 5 13 7 WSW 1020,9 18 0 -
12.01.2018 18:00:00 10,9 6,4 4 2 7 4 SW 1021,2 20 0 0,0
12.01.2018 17:00:00 11,5 6,7 4 2 16 8 SE 1021,7 14 0 0,0
12.01.2018 16:00:00 11,8 6,8 11 6 18 10 ESE 1021,5 20 2 0,0
12.01.2018 15:00:00 12,3 5,6 10 5 21 11 E 1022,0 20 26 0,0
12.01.2018 14:00:00 12,1 5,5 12 6 21 11 E 1022,7 20 0 0,0
12.01.2018 13:00:00 12,3 6,4 5 3 17 9 ESE 1023,8 20 36 -
12.01.2018 12:00:00 12,8 6,8 2 1 20 11 ESE 1025,1 19 22 0,0
12.01.2018 11:00:00 10,6 5,1 6 3 20 11 WSW 1025,6 20 60 0,0
12.01.2018 10:00:00 7,6 3,0 7 4 27 15 W 1025,5 20 46 0,0
12.01.2018 09:00:00 7,0 2,7 4 2 19 11 SSW 1025,4 20 0 0,0
12.01.2018 08:00:00 8,0 3,0 8 4 24 13 SW 1025,1 20 0 0,0
12.01.2018 07:00:00 8,6 3,4 10 5 26 14 W 1025,0 20 0 -
12.01.2018 06:00:00 9,3 3,9 9 5 28 15 WSW 1025,0 20 0 0,0
12.01.2018 05:00:00 9,7 4,3 9 5 30 16 WSW 1025,8 20 0 0,0
12.01.2018 04:00:00 10,0 5,0 10 6 27 15 W 1026,2 20 0 0,0
12.01.2018 03:00:00 9,3 4,5 9 5 28 15 W 1026,2 20 0 0,0
12.01.2018 02:00:00 9,8 5,0 9 5 32 17 W 1026,2 20 0 0,0
12.01.2018 01:00:00 10,4 5,8 13 7 37 20 W 1026,1 20 0 -
12.01.2018 00:00:00 10,4 6,1 12 7 40 22 W 1026,3 20 0 0,0
11.01.2018 23:00:00 10,2 6,4 11 6 54 29 W 1025,7 20 0 0,0
11.01.2018 22:00:00 10,0 6,4 15 8 53 28 W 1025,3 20 0 0,0
11.01.2018 21:00:00 9,9 6,2 18 10 53 28 W 1025,2 20 0 0,8
11.01.2018 20:00:00 9,8 6,1 21 11 55 30 W 1024,2 6 0 1,6
11.01.2018 19:00:00 9,9 5,5 19 10 66 36 W 1023,4 4,4 0 -
11.01.2018 18:00:00 10,1 4,5 24 13 68 37 W 1022,6 14 0 0,0
11.01.2018 17:00:00 10,3 3,6 23 12 76 41 W 1021,4 20 0 0,0
11.01.2018 16:00:00 11,0 2,9 32 17 81 44 W 1020,9 20 3 0,0
11.01.2018 15:00:00 11,6 2,3 38 20 72 39 W 1020,1 20 55 0,0
11.01.2018 14:00:00 11,6 1,9 27 15 71 38 W 1019,6 20 58 0,0
11.01.2018 13:00:00 10,5 2,9 24 13 67 36 W 1020,4 20 58 -
11.01.2018 12:00:00 9,6 3,4 22 12 72 39 W 1020,7 20 9 1,0
11.01.2018 11:00:00 8,0 3,0 17 9 63 34 W 1020,6 20 5 0,2
11.01.2018 10:00:00 7,9 3,4 19 10 62 34 W 1019,8 20 9 0,6
11.01.2018 09:00:00 7,6 3,4 24 13 64 35 W 1020,2 11 0 1,0
11.01.2018 08:00:00 7,2 3,0 18 10 68 37 W 1019,1 20 0 1,8
11.01.2018 07:00:00 7,2 2,9 19 10 64 34 W 1018,3 9 0 -
11.01.2018 06:00:00 7,2 2,7 20 11 80 43 W 1017,7 20 0 0,6
11.01.2018 05:00:00 6,9 2,9 14 8 67 36 W 1017,4 20 0 2,6
11.01.2018 04:00:00 7,6 3,4 17 9 63 34 W 1017,6 20 0 2,4
11.01.2018 03:00:00 8,7 2,7 16 9 68 37 W 1016,6 7 0 0,2
11.01.2018 02:00:00 10,2 1,9 28 15 63 34 W 1016,5 20 0 0,0
11.01.2018 01:00:00 10,4 0,9 15 8 42 23 W 1015,7 20 0 -
11.01.2018 00:00:00 9,7 -0,5 11 6 31 17 W 1016,2 20 0 0,0
10.01.2018 23:00:00 10,4 -0,7 15 8 50 27 W 1015,7 20 0 0,0
10.01.2018 22:00:00 10,8 0,0 18 10 63 34 W 1015,8 20 0 0,0
10.01.2018 21:00:00 10,6 1,1 24 13 74 40 W 1015,7 20 0 0,0
10.01.2018 20:00:00 10,2 0,9 23 13 71 39 W 1015,2 20 0 0,2
10.01.2018 19:00:00 8,5 2,7 19 10 77 42 W 1015,1 20 0 -
10.01.2018 18:00:00 8,6 3,4 39 21 94 51 W 1014,5 20 0 0,2
10.01.2018 17:00:00 10,7 3,8 15 8 72 39 W 1012,4 20 0 0,0
10.01.2018 16:00:00 10,9 4,3 34 19 66 36 WNW 1011,5 20 0 0,0
10.01.2018 15:00:00 11,0 6,7 8 4 62 33 W 1010,3 20 8 0,0
10.01.2018 14:00:00 12,0 6,1 6 3 18 10 N 1009,1 18 0 0,0
10.01.2018 13:00:00 11,2 4,8 3 2 23 12 SE 1009,2 20 0 -
10.01.2018 12:00:00 11,6 4,3 4 2 18 10 WNW 1009,8 20 18 0,0
10.01.2018 11:00:00 10,8 4,6 7 4 22 12 W 1010,2 20 60 0,0
10.01.2018 10:00:00 7,9 2,7 5 3 25 14 WSW 1011,0 20 40 0,0
10.01.2018 09:00:00 7,3 2,7 5 3 21 11 S 1011,9 20 0 0,0
10.01.2018 08:00:00 7,1 2,9 4 2 25 14 S 1012,8 20 0 0,0

tt = temperature
td = dewpoint
ff = wind speed
fx = gusts
dd = wind direction
ppp = reduced air pressure
vv = visibility
sd = sunshine duration
rr = precipitation

Next stations